Location: Bosmont
(49.7318°N, 3.8587°E)
Time: 07:34:00
(UTC+00:00)

Cosmos 2333 Rocket - Pass Details

Date: 08 February 2023
Orbit: 837 x 864 km, 70.8° (Epoch: 23 March)

Event Time Altitude Azimuth Distance (km) Brightness Sun altitude
Rises 18:54:14 0° 228° (SW) 3,386 6.1 -20.2°
Reaches altitude 10° 18:56:46 10° 235° (SW) 2,458 5.4 -20.6°
Maximum altitude 19:02:11 46° 308° (NW) 1,132 3.2 -21.5°
Drops below altitude 10° 19:07:40 10° 21° (NNE) 2,488 4.5 -22.4°
Enters shadow 19:08:12 - 23° (NNE) 2,679 4.6 -22.5°
